STARLINK-36612, 67580

Orbit data source: Space-Track

STARLINK-36612, 67580 is a payload satellite owned by SpaceX/Seattle (US) in SSO that was launched on Sun, 25 Jan 2026 UTC via an FALCON 9 launch vehicle from the Air Force Western Test Range (AFWTR). Payload-class satellites include a variety of spacecraft equipped with specific instruments for various scientific and technological missions. These include communications satellites like Starlink; space stations such as the ISS; scientific satellites like the Hubble; Earth observation satellites from companies like Planet Labs, Umbra, and HawkEye 360; GPS; miniature CubeSats for education and research; and military/defense satellites.

Loading next visibility...
Identifier
67580, 2026-016V
Orbit
SSO
Country
Flag of USUS
Related business
Manufacturer
SpaceX/Seattle
Mission
Operational Commercial Communications
Bus & Motor
STARLINK V2MO, Unknown motor
Mass
575 kg wet, ~530 kg dry
Launch date (UTC)
2026-01-25 (5 months ago)
Launch vehicle
FALCON 9
Launch site
Air Force Western Test Range (AFWTR)
Object type
Payload
Rocket body
Debris
Shape & HBR
Box + 2 Pan, 17.7 m
Radar Cross Section
36.964 m², Large (>1 m²)

Expand to show TLE details & history
Last TLE update: 10 hours ago

TLE from 10 hours ago
0 STARLINK-36612
1 67580U 26016V   26171.41973772  .00015224  00000-0  47272-3 0  9997
2 67580  97.2851 231.4675 0001041  94.2366 265.8995 15.33459699 22613
Epoch: 2026-06-20T10:04Z
TLE epoch observation values (Epoch: 2026-06-20T10:04:25.339Z)
Latitude
-0.00007°
Longitude
171.7273°
Altitude
468.662 km
Speed
7.632 km/s
True Right ascension
15h 25m 52s
True Declination
0° 00' 00"
Sunlit
Object was in full shadow at epoch
Visualization orbit readout
Latitude
Unknown
Longitude
Unknown
Altitude
Unknown
Speed
Unknown
Apparent Right ascension
Unknown
Apparent Declination
Unknown
Sunlit
N/A
Visualization observer readout
Local Sidereal Time
07:23:26
Azimuth
Unknown
Elevation
Unknown
Doppler factor
Unknown
Orbital elements
Apogee altitude
463.154 km
Perigee altitude
461.73 km
Semi-major axis
6,840.579 km
Eccentricity
0.0001
Inclination
97.2851°
RAAN
231.4675°
Arg. of periapsis
94.2366°
True anomaly
265.8876°
Mean anomaly
265.8995°
Eccentric anomaly
265.89355°
Mean motion
3.83622 °/min
Orbital period
93.84 mins
BSTAR
0.00047272
Loading maneuver chart data...
Computing Atmospheric mass density...
Loading historical data...
Loading historical data...
Loading historical data...
Loading historical data...
Loading historical data...
Loading historical data...
Loading historical data...

Documentation

Showing up to 5 results
|